Regional Weather Roundup
Issued by NWS

Home | Current Version | Previous Version | Graphics & Text | Print | Product List | Glossary On
Versions: 1 2 3 4 5 6 7 8 9 10 11 12 13 14 15 16 17 18 19 20 21 22 23 24 25 26 27 28 29 30 31 32 33 34 35 36 37 38 39 40 41 42 43 44 45 46 47 48 49 50
000
ASUS43 KMPX 262301
RWRMN
WEATHER ROUNDUP FOR MINNESOTA
NATIONAL WEATHER SERVICE TWIN CITIES/CHANHASSEN MN
600 PM CDT FRI MAY 26 2017


NOTE: "FAIR" INDICATES FEW OR NO CLOUDS BELOW 12,000 FEET WITH NO
SIGNIFICANT WEATHER AND/OR OBSTRUCTIONS TO VISIBILITY. N/A MEANS
CURRENT SKY AND/OR WEATHER CONDITIONS ARE NOT AVAILABLE.

MNZ060>063-068>070-270000-
   Twin Cities Metro

CITY           SKY/WX    TMP DP  RH WIND       PRES   REMARKS
TWIN CITIES    MOSUNNY   79  51  37 W16G22    29.71F
ST PAUL        MOSUNNY   76  55  48 SW10      29.71S
CRYSTAL        SUNNY     78  48  34 W10G20    29.70S
BLAINE         MOSUNNY   81  52  36 W12G22    29.71S
LAKEVILLE      SUNNY     75  54  46 SW3       29.73S
EDEN PRAIRIE   MOSUNNY   78  49  35 W9G18     29.71S
SOUTH ST PAUL  MOSUNNY   77  54  44 SW7       29.71F
LAKE ELMO      PTSUNNY   73  57  56 SW8       29.73S
$$
MNZ001>005-007-008-013>017-022>024-027-028-270000-
   Northwest Minnesota

CITY           SKY/WX    TMP DP  RH WIND       PRES   REMARKS
BEMIDJI        MOSUNNY   70  44  38 W15G24    29.69S
HALLOCK        CLOUDY    66  45  45 W16       29.66S
ROSEAU         SUNNY     68  46  45 SW12G21   29.66R
WARROAD        MOSUNNY   66  48  52 W12G24    29.66R
CROOKSTON      SUNNY     68  43  40 W16       29.72R
FOSSTON        MOSUNNY   68  45  42 W16G22    29.72R
DETROIT LAKES  MOSUNNY   68  43  40 W13       29.75R
MOORHEAD       SUNNY     70  39  32 W16G24    29.75R
PARK RAPIDS    LGT RAIN  72  43  35 W15G22    29.71R
MAHNOMEN       FAIR      68  43  39 W20G26    29.72R
$$
MNZ006-009>011-018-025>026-270000-
   North Central Minnesota

CITY           SKY/WX    TMP DP  RH WIND       PRES   REMARKS
BAUDETTE       CLOUDY    70  45  40 W15G21    29.64R HAZE
FLAG ISLAND    MOSUNNY   66  45  45 SW16G24   29.62S
INTL FALLS     MOSUNNY   74  40  29 W13G20    29.64R
WASKISH        MOSUNNY   68  52  56 W14       29.68R
BIG FORK       PTSUNNY   73  43  33 SW10G23   29.67R
LONGVILLE      PTSUNNY   72  45  37 SW7       29.70S
GRAND RAPIDS   MOSUNNY   73  44  35 W12G17    29.70R
CRANE LAKE     CLOUDY    64  57  77 S3        29.67R
ORR            MOSUNNY   72  52  49 W6        29.63S
COOK           MOSUNNY   72  55  56 S6        29.67R
WALKER         MOCLDY    71  45  39 W10G21    29.69S
$$
MNZ012-019>021-037-270000-
   Northeast Minnesota

CITY           SKY/WX    TMP DP  RH WIND       PRES   REMARKS
DULUTH         MOSUNNY   64  52  64 CALM      29.71R THUNDER
ELY            CLOUDY    61  55  82 SE9       29.69F
HIBBING        MOSUNNY   73  45  36 SW9G18    29.66R
EVELETH        CLOUDY    70  47  42 SE6       29.69R
DULUTH HARBOR  TSTM      48  45  87 S5        29.74R
TWO HARBORS    CLOUDY    64  55  72 E5        29.69S
SILVER BAY     MOSUNNY   61  54  77 NE6       29.71R
GRAND MARAIS     N/A     47  43  86 E7        29.75R
G MARAIS ARPRT CLOUDY    61  48  63 SE6       29.77R
$$
MNZ029>031-032-039>041-046>048-054>057-064-270000-
   West Central Minnesota

CITY           SKY/WX    TMP DP  RH WIND       PRES   REMARKS
FERGUS FALLS   SUNNY     70  45  40 NW16      29.74R
WHEATON        SUNNY     70  39  32 W13G18    29.78S
MORRIS         SUNNY     72  45  37 W15       29.76R
ALEXANDRIA     SUNNY     71  44  37 W14       29.77R
ELBOW LAKE     FAIR      69  44  40 NW12G18   29.76S
WADENA         SUNNY     70  45  40 W15G22    29.73R
GLENWOOD       MOSUNNY   72  45  37 W17       29.77R
APPLETON       SUNNY     73  39  29 NW14G21   29.76S
BENSON         MOSUNNY   72  43  35 NW13G22   29.78S
ORTONVILLE     SUNNY     72  43  35 NW7G18    29.78R
MADISON        MOSUNNY   73  45  35 W9        29.77S
WILLMAR        FAIR      73  46  38 W12G22    29.78R
$$
MNZ033>034-036-042>043-049>051-058-059-270000-
   Central Minnesota

CITY           SKY/WX    TMP DP  RH WIND       PRES   REMARKS
ST CLOUD       SUNNY     74  49  41 W17       29.73R
SAUK CENTRE    FAIR      70  47  43 W14G20    29.76R
PAYNESVILLE    MOSUNNY   73  43  33 W15       29.77R
AITKIN         SUNNY     73  46  38 SW8       29.69R
PINE RIVER     MOSUNNY   72  48  43 W7        29.75R
BRAINERD       MOSUNNY   72  44  36 W16       29.72R
STAPLES        SUNNY     72  41  33 W15       29.73R
LONG PRAIRIE   FAIR      70  45  40 SW12G17   29.75S
LITTLE FALLS   MOSUNNY   72  43  35 W10       29.73S
LITCHFIELD     SUNNY     75  46  35 W13       29.76S
BUFFALO        SUNNY     75  46  36 W10       29.74S
MAPLE LAKE     SUNNY     75  50  40 W8        29.75R
HUTCHINSON     SUNNY     75  50  40 W13       29.76S
$$
MNZ037-044-045-052-053-270000-
   East Central Minnesota

CITY           SKY/WX    TMP DP  RH WIND       PRES   REMARKS
PRINCETON      SUNNY     77  48  36 SW7       29.72R
MORA           SUNNY     73  48  40 W10       29.72R
CAMBRIDGE      SUNNY     79  55  44 W8        29.69R
RUSH CITY      LGT RAIN  71  60  67 W3        29.71R
MOOSE LAKE     CLOUDY    72  59  64 SW8       29.67S
HINCKLEY       MOCLDY    72  55  56 S14       29.69S
CLOQUET        PTSUNNY   64  54  68 E5        29.70S THUNDER
MCGREGOR       SUNNY     73  45  35 SW13G20   29.70R
$$
MNZ071>073-080-081-089-090-097-098-270000-
   Southwest Minnesota

CITY           SKY/WX    TMP DP  RH WIND       PRES   REMARKS
MONTEVIDEO     SUNNY     75  43  31 NW13G18   29.77S
CANBY          MOSUNNY   73  46  38 NW14      29.79S
MARSHALL       SUNNY     73  44  35 NW18      29.78F
REDWOOD FALLS  SUNNY     74  44  34 W12       29.77R
OLIVIA         SUNNY     73  46  38 W10G22    29.77R
PIPESTONE      SUNNY     72  36  26 W15       29.82R
WINDOM         SUNNY     73  43  33 W18       29.79S
WORTHINGTON    SUNNY     73  44  35 W14       29.81S
JACKSON        SUNNY     73  41  31 W13G22    29.80R
TRACY          SUNNY     74  46  36 NW12G17   29.80S
SLAYTON        SUNNY     71  43  36 W14G21    29.81F
$$
MNZ065>067-074>077-082>085-091>093-270000-
   South Central Minnesota

CITY           SKY/WX    TMP DP  RH WIND       PRES   REMARKS
MANKATO        SUNNY     77  51  40 W15       29.75S
NEW ULM        SUNNY     75  45  33 W15       29.76S
ST JAMES       SUNNY     77  46  33 W13       29.78R
FAIRMONT       SUNNY     77  48  35 W15       29.77R
GLENCOE        SUNNY     77  49  38 W7G17     29.74S
FARIBAULT      SUNNY     79  52  38 SW10      29.75S
OWATONNA       CLOUDY    79  54  41 S8        29.75S
WASECA         MOSUNNY   77  46  33 W8G17     29.76S
ALBERT LEA     CLOUDY    77  57  50 CALM      29.76S
$$
MNZ078>079-086>088-094>096-270000-
   Southeast Minnesota

CITY           SKY/WX    TMP DP  RH WIND       PRES   REMARKS
ROCHESTER      MOSUNNY   72  58  61 S14       29.78F
RED WING       SUNNY     75  54  46 S10       29.73S
STANTON        MOSUNNY   79  55  42 SW8       29.72F
DODGE CENTER   CLOUDY    73  55  53 S9G16     29.77S
WINONA         SUNNY     73  55  53 SW5       29.79S
AUSTIN         MOSUNNY   72  55  56 S9        29.77S
PRESTON        SUNNY     70  56  59 SE8       29.80F
$$
ABBREVIATIONS USED IN REMARKS
   TC - TEMPERATURES IN CELSIUS
  WCI - WIND CHILL INDEX
   HX - HEAT INDEX
  VSB - VISIBILITY
$$




USA.gov is the U.S. government's official web portal to all federal, state and local government web resources and services.